| time (UTC) | temp F | wind direction | speed MPH | gust MPH | rain 1hr in | rain 24hr in | rain mn in | humidity % | barometer mb |
| 20260906132954 | 56 | 343 | 3.0 | 6.0 | 0.00 | 0.00 | 0.00 | 79 | 1016.2 |
| 20260906132449 | 56 | 349 | 2.0 | 6.0 | 0.00 | 0.00 | 0.00 | 79 | 1016.4 |
| 20260906131944 | 57 | 11 | 5.0 | 6.0 | 0.00 | 0.00 | 0.00 | 78 | 1016.3 |
| 20260906131439 | 57 | 344 | 4.0 | 6.0 | 0.00 | 0.00 | 0.00 | 78 | 1016.1 |
| 20260906130935 | 57 | 344 | 4.0 | 5.0 | 0.00 | 0.00 | 0.00 | 77 | 1016.2 |
| 20260906130434 | 57 | 347 | 3.0 | 5.0 | 0.00 | 0.00 | 0.00 | 76 | 1016.3 |
| 20260906125928 | 57 | 357 | 3.0 | 5.0 | 0.00 | 0.00 | 0.00 | 77 | 1016.3 |
| 20260906125425 | 57 | 138 | 1.0 | 5.0 | 0.00 | 0.00 | 0.00 | 77 | 1016.3 |
| 20260906124920 | 57 | 10 | 5.0 | 8.0 | 0.00 | 0.00 | 0.00 | 78 | 1016.4 |
| 20260906124416 | 57 | 309 | 0.0 | 6.0 | 0.00 | 0.00 | 0.00 | 78 | 1016.2 |
| 20260906123915 | 57 | 334 | 4.0 | 5.0 | 0.00 | 0.00 | 0.00 | 79 | 1016.4 |
| 20260906123409 | 57 | 2 | 4.0 | 5.0 | 0.00 | 0.00 | 0.00 | 79 | 1016.1 |
| 20260906122904 | 56 | 3 | 2.0 | 5.0 | 0.00 | 0.00 | 0.00 | 80 | 1016.3 |
| 20260906122359 | 57 | 8 | 2.0 | 4.0 | 0.00 | 0.00 | 0.00 | 79 | 1016.2 |
| 20260906121856 | 57 | 28 | 4.0 | 4.0 | 0.00 | 0.00 | 0.00 | 78 | 1016.4 |
| 20260906121352 | 57 | 1 | 4.0 | 5.0 | 0.00 | 0.00 | 0.00 | 78 | 1016.3 |
| 20260906120848 | 57 | 0 | 2.0 | 4.0 | 0.00 | 0.00 | 0.00 | 77 | 1016.3 |
| 20260906120343 | 57 | 352 | 3.0 | 5.0 | 0.00 | 0.00 | 0.00 | 76 | 1016.5 |
| 20260906115839 | 57 | 353 | 3.0 | 5.0 | 0.00 | 0.00 | 0.00 | 76 | 1016.2 |
| 20260906115334 | 57 | 347 | 4.0 | 5.0 | 0.00 | 0.00 | 0.00 | 75 | 1016.5 |
| 20260906114833 | 57 | 359 | 3.0 | 4.0 | 0.00 | 0.00 | 0.00 | 75 | 1016.4 |
| 20260906114329 | 57 | 348 | 4.0 | 5.0 | 0.00 | 0.00 | 0.00 | 74 | 1016.7 |
| 20260906113824 | 57 | 5 | 3.0 | 4.0 | 0.00 | 0.00 | 0.00 | 74 | 1016.5 |
| 20260906113323 | 57 | 358 | 4.0 | 4.0 | 0.00 | 0.00 | 0.00 | 74 | 1016.6 |
| 20260906112819 | 57 | 328 | 2.0 | 4.0 | 0.00 | 0.00 | 0.00 | 75 | 1016.4 |
| 20260906112315 | 57 | 346 | 2.0 | 3.0 | 0.00 | 0.00 | 0.00 | 75 | 1016.4 |
| 20260906111815 | 57 | 352 | 2.0 | 3.0 | 0.00 | 0.00 | 0.00 | 75 | 1016.5 |
| 20260906111314 | 57 | 11 | 2.0 | 4.0 | 0.00 | 0.00 | 0.00 | 75 | 1016.6 |
| 20260906110809 | 57 | 356 | 4.0 | 4.0 | 0.00 | 0.00 | 0.00 | 75 | 1016.4 |
| 20260906110305 | 57 | 0 | 3.0 | 5.0 | 0.00 | 0.00 | 0.00 | 75 | 1016.4 |
| 20260906105804 | 57 | 342 | 4.0 | 4.0 | 0.00 | 0.00 | 0.00 | 76 | 1016.6 |
| 20260906105300 | 57 | 3 | 3.0 | 5.0 | 0.00 | 0.00 | 0.00 | 76 | 1016.7 |
| 20260906104755 | 56 | 336 | 4.0 | 4.0 | 0.00 | 0.00 | 0.00 | 76 | 1016.4 |
| 20260906104253 | 56 | 355 | 3.0 | 4.0 | 0.00 | 0.00 | 0.00 | 76 | 1016.5 |
| 20260906103751 | 56 | 334 | 2.0 | 2.0 | 0.00 | 0.00 | 0.00 | 77 | 1016.7 |
| 20260906103246 | 56 | 115 | 2.0 | 3.0 | 0.00 | 0.00 | 0.00 | 77 | 1016.7 |
| 20260906102741 | 56 | 79 | 2.0 | 3.0 | 0.00 | 0.00 | 0.00 | 76 | 1016.5 |
| 20260906102234 | 56 | 38 | 3.0 | 4.0 | 0.00 | 0.00 | 0.00 | 77 | 1016.6 |
| 20260906101729 | 56 | 12 | 3.0 | 4.0 | 0.00 | 0.00 | 0.00 | 77 | 1016.6 |
| 20260906101219 | 56 | 347 | 2.0 | 3.0 | 0.00 | 0.00 | 0.00 | 77 | 1016.7 |
| 20260906100714 | 56 | 50 | 2.0 | 3.0 | 0.00 | 0.00 | 0.00 | 77 | 1016.9 |
| 20260906100208 | 56 | 54 | 1.0 | 2.0 | 0.00 | 0.00 | 0.00 | 77 | 1016.8 |
| 20260906095703 | 56 | 99 | 1.0 | 2.0 | 0.00 | 0.00 | 0.00 | 77 | 1016.7 |
| 20260906095159 | 56 | 81 | 2.0 | 3.0 | 0.00 | 0.00 | 0.00 | 77 | 1016.6 |
| 20260906094657 | 56 | 107 | 2.0 | 2.0 | 0.00 | 0.00 | 0.00 | 76 | 1016.8 |
| 20260906094153 | 57 | 86 | 1.0 | 2.0 | 0.00 | 0.00 | 0.00 | 76 | 1016.8 |
| 20260906093649 | 57 | 129 | 0.0 | 1.0 | 0.00 | 0.00 | 0.00 | 76 | 1016.7 |
| 20260906093144 | 57 | 19 | 0.0 | 2.0 | 0.00 | 0.00 | 0.00 | 76 | 1016.8 |
| 20260906092638 | 56 | 44 | 0.0 | 2.0 | 0.00 | 0.00 | 0.00 | 76 | 1016.5 |
| 20260906092133 | 56 | 11 | 1.0 | 2.0 | 0.00 | 0.00 | 0.00 | 77 | 1016.7 |
| 20260906091629 | 56 | 26 | 2.0 | 3.0 | 0.00 | 0.00 | 0.00 | 78 | 1016.8 |
| 20260906091125 | 56 | 31 | 2.0 | 2.0 | 0.00 | 0.00 | 0.00 | 79 | 1016.8 |
| 20260906090620 | 55 | 21 | 1.0 | 2.0 | 0.00 | 0.00 | 0.00 | 79 | 1016.9 |
| 20260906090115 | 55 | 73 | 0.0 | 2.0 | 0.00 | 0.00 | 0.00 | 80 | 1016.9 |
| 20260906085614 | 56 | 118 | 2.0 | 2.0 | 0.00 | 0.00 | 0.00 | 79 | 1016.9 |
| 20260906085108 | 56 | 123 | 2.0 | 3.0 | 0.00 | 0.00 | 0.00 | 78 | 1017.1 |
| 20260906084603 | 56 | 106 | 2.0 | 2.0 | 0.00 | 0.00 | 0.00 | 77 | 1017.0 |
| 20260906084102 | 57 | 124 | 2.0 | 4.0 | 0.00 | 0.00 | 0.00 | 76 | 1016.9 |
| 20260906083558 | 57 | 147 | 1.0 | 5.0 | 0.00 | 0.00 | 0.00 | 76 | 1017.2 |
| 20260906083057 | 57 | 142 | 3.0 | 4.0 | 0.00 | 0.00 | 0.00 | 76 | 1017.1 |
| 20260906082553 | 57 | 124 | 2.0 | 3.0 | 0.00 | 0.00 | 0.00 | 75 | 1017.2 |
| 20260906082048 | 57 | 128 | 2.0 | 4.0 | 0.00 | 0.00 | 0.00 | 75 | 1017.3 |
| 20260906081544 | 57 | 141 | 1.0 | 3.0 | 0.00 | 0.00 | 0.00 | 76 | 1017.0 |
| 20260906081039 | 57 | 129 | 0.0 | 2.0 | 0.00 | 0.00 | 0.00 | 76 | 1017.3 |
| 20260906080536 | 57 | 141 | 1.0 | 2.0 | 0.00 | 0.00 | 0.00 | 75 | 1017.3 |
| 20260906080031 | 57 | 103 | 0.0 | 2.0 | 0.00 | 0.00 | 0.00 | 76 | 1017.3 |
| 20260906075526 | 56 | 86 | 2.0 | 2.0 | 0.00 | 0.00 | 0.00 | 77 | 1017.1 |
| 20260906075020 | 57 | 72 | 1.0 | 3.0 | 0.00 | 0.00 | 0.00 | 77 | 1017.2 |
| 20260906074515 | 57 | 100 | 2.0 | 3.0 | 0.00 | 0.00 | 0.00 | 77 | 1017.3 |
| 20260906074014 | 57 | 93 | 1.0 | 2.0 | 0.00 | 0.00 | 0.00 | 77 | 1017.1 |
| 20260906073509 | 57 | 104 | 4.0 | 4.0 | 0.00 | 0.00 | 0.00 | 77 | 1017.2 |
| 20260906073005 | 57 | 118 | 2.0 | 3.0 | 0.00 | 0.00 | 0.00 | 78 | 1017.4 |
| 20260906072500 | 56 | 126 | 2.0 | 2.0 | 0.00 | 0.00 | 0.00 | 78 | 1017.3 |
| 20260906071955 | 57 | 103 | 2.0 | 2.0 | 0.00 | 0.00 | 0.00 | 77 | 1017.3 |
| 20260906071451 | 57 | 101 | 2.0 | 2.0 | 0.00 | 0.00 | 0.00 | 78 | 1017.2 |
| 20260906070947 | 57 | 64 | 1.0 | 2.0 | 0.00 | 0.00 | 0.00 | 77 | 1017.2 |
| 20260906070442 | 57 | 101 | 2.0 | 2.0 | 0.00 | 0.00 | 0.00 | 77 | 1017.1 |
| 20260906065938 | 57 | 94 | 2.0 | 3.0 | 0.00 | 0.00 | 0.00 | 77 | 1017.2 |
| 20260906065432 | 57 | 128 | 2.0 | 2.0 | 0.00 | 0.00 | 0.00 | 78 | 1017.3 |
| 20260906064928 | 57 | 130 | 2.0 | 2.0 | 0.00 | 0.00 | 0.00 | 77 | 1017.3 |
| 20260906064424 | 57 | 119 | 2.0 | 2.0 | 0.00 | 0.00 | 0.00 | 77 | 1017.3 |
| 20260906063919 | 57 | 101 | 2.0 | 2.0 | 0.00 | 0.00 | 0.00 | 77 | 1017.4 |
| 20260906063414 | 57 | 84 | 1.0 | 3.0 | 0.00 | 0.00 | 0.00 | 77 | 1017.2 |
| 20260906062909 | 57 | 99 | 1.0 | 2.0 | 0.00 | 0.00 | 0.00 | 77 | 1017.1 |
| 20260906062408 | 57 | 104 | 0.0 | 3.0 | 0.00 | 0.00 | 0.00 | 77 | 1017.1 |
| 20260906061903 | 57 | 75 | 0.0 | 2.0 | 0.00 | 0.00 | 0.00 | 77 | 1017.3 |
| 20260906061354 | 57 | 111 | 1.0 | 2.0 | 0.00 | 0.00 | 0.00 | 77 | 1017.2 |
| 20260906060848 | 57 | 97 | 1.0 | 2.0 | 0.00 | 0.00 | 0.00 | 76 | 1017.3 |
| 20260906060346 | 58 | 109 | 2.0 | 2.0 | 0.00 | 0.00 | 0.00 | 76 | 1017.1 |
| 20260906055842 | 58 | 110 | 2.0 | 4.0 | 0.00 | 0.00 | 0.00 | 76 | 1017.4 |
| 20260906055337 | 58 | 104 | 2.0 | 4.0 | 0.00 | 0.00 | 0.00 | 75 | 1017.3 |
| 20260906054832 | 59 | 32 | 2.0 | 4.0 | 0.00 | 0.00 | 0.00 | 74 | 1017.4 |
| 20260906054327 | 59 | 99 | 0.0 | 2.0 | 0.00 | 0.00 | 0.00 | 74 | 1017.5 |
| 20260906053824 | 58 | 49 | 1.0 | 3.0 | 0.00 | 0.00 | 0.00 | 74 | 1017.3 |
| 20260906053319 | 58 | 88 | 1.0 | 3.0 | 0.00 | 0.00 | 0.00 | 74 | 1017.4 |
| 20260906052815 | 59 | 45 | 1.0 | 3.0 | 0.00 | 0.00 | 0.00 | 73 | 1017.4 |
| 20260906052311 | 59 | 60 | 2.0 | 3.0 | 0.00 | 0.00 | 0.00 | 73 | 1017.4 |
| 20260906051808 | 59 | 16 | 2.0 | 4.0 | 0.00 | 0.00 | 0.00 | 73 | 1017.4 |
| 20260906051307 | 59 | 28 | 2.0 | 4.0 | 0.00 | 0.00 | 0.00 | 72 | 1017.4 |
| 20260906050803 | 59 | 37 | 3.0 | 4.0 | 0.00 | 0.00 | 0.00 | 72 | 1017.5 |
| 20260906050258 | 59 | 7 | 2.0 | 4.0 | 0.00 | 0.00 | 0.00 | 73 | 1017.3 |
| 20260906045756 | 59 | 326 | 2.0 | 3.0 | 0.00 | 0.00 | 0.00 | 73 | 1017.3 |
| 20260906045251 | 58 | 353 | 1.0 | 2.0 | 0.00 | 0.00 | 0.00 | 74 | 1017.3 |
| 20260906044747 | 58 | 41 | 0.0 | 4.0 | 0.00 | 0.00 | 0.00 | 74 | 1017.5 |
| 20260906044242 | 58 | 18 | 2.0 | 4.0 | 0.00 | 0.00 | 0.00 | 75 | 1017.4 |
| 20260906043738 | 59 | 353 | 2.0 | 4.0 | 0.00 | 0.00 | 0.00 | 74 | 1017.3 |
| 20260906043234 | 59 | 349 | 2.0 | 4.0 | 0.00 | 0.00 | 0.00 | 74 | 1017.5 |
| 20260906042733 | 59 | 4 | 2.0 | 3.0 | 0.00 | 0.00 | 0.00 | 74 | 1017.4 |
| 20260906042232 | 59 | 309 | 2.0 | 3.0 | 0.00 | 0.00 | 0.00 | 73 | 1017.6 |
| 20260906041728 | 59 | 317 | 2.0 | 3.0 | 0.00 | 0.00 | 0.00 | 74 | 1017.7 |
| 20260906041223 | 59 | 305 | 2.0 | 4.0 | 0.00 | 0.00 | 0.00 | 75 | 1017.8 |
| 20260906040719 | 59 | 328 | 2.0 | 3.0 | 0.00 | 0.00 | 0.00 | 75 | 1017.9 |
| 20260906040214 | 59 | 2 | 0.0 | 3.0 | 0.00 | 0.00 | 0.00 | 76 | 1017.7 |
| 20260906035709 | 59 | 295 | 1.0 | 4.0 | 0.00 | 0.00 | 0.00 | 75 | 1017.9 |
| 20260906035204 | 59 | 308 | 0.0 | 4.0 | 0.00 | 0.00 | 0.00 | 75 | 1017.8 |
| 20260906034658 | 59 | 301 | 2.0 | 3.0 | 0.00 | 0.00 | 0.00 | 75 | 1017.9 |
| 20260906034153 | 59 | 314 | 2.0 | 3.0 | 0.00 | 0.00 | 0.00 | 76 | 1017.8 |
| 20260906033650 | 59 | 339 | 2.0 | 3.0 | 0.00 | 0.00 | 0.00 | 76 | 1017.9 |
| 20260906033149 | 59 | 351 | 2.0 | 4.0 | 0.00 | 0.00 | 0.00 | 76 | 1017.8 |
| 20260906032646 | 59 | 321 | 4.0 | 4.0 | 0.00 | 0.00 | 0.00 | 76 | 1018.0 |
| 20260906032146 | 59 | 343 | 3.0 | 4.0 | 0.00 | 0.00 | 0.00 | 76 | 1017.8 |
| 20260906031641 | 59 | 345 | 3.0 | 4.0 | 0.00 | 0.00 | 0.00 | 76 | 1017.8 |
| 20260906031136 | 59 | 299 | 0.0 | 5.0 | 0.00 | 0.00 | 0.00 | 75 | 1017.6 |
| 20260906030635 | 59 | 330 | 2.0 | 4.0 | 0.00 | 0.00 | 0.00 | 75 | 1017.8 |
| 20260906030131 | 60 | 350 | 2.0 | 3.0 | 0.00 | 0.00 | 0.00 | 75 | 1017.9 |
| 20260906025630 | 60 | 29 | 2.0 | 3.0 | 0.00 | 0.00 | 0.00 | 75 | 1017.9 |
| 20260906025129 | 59 | 88 | 2.0 | 3.0 | 0.00 | 0.00 | 0.00 | 75 | 1017.8 |
| 20260906024624 | 60 | 97 | 2.0 | 3.0 | 0.00 | 0.00 | 0.00 | 74 | 1017.9 |
| 20260906024119 | 60 | 64 | 2.0 | 3.0 | 0.00 | 0.00 | 0.00 | 74 | 1017.9 |
| 20260906023609 | 60 | 55 | 2.0 | 3.0 | 0.00 | 0.00 | 0.00 | 74 | 1017.7 |
| 20260906023104 | 60 | 357 | 2.0 | 3.0 | 0.00 | 0.00 | 0.00 | 75 | 1017.7 |
| 20260906022559 | 60 | 3 | 2.0 | 4.0 | 0.00 | 0.00 | 0.00 | 75 | 1017.8 |
| 20260906022055 | 60 | 330 | 2.0 | 4.0 | 0.00 | 0.00 | 0.00 | 76 | 1017.6 |
| 20260906021550 | 60 | 345 | 3.0 | 4.0 | 0.00 | 0.00 | 0.00 | 76 | 1017.5 |
| 20260906021049 | 60 | 358 | 2.0 | 3.0 | 0.00 | 0.00 | 0.00 | 74 | 1017.7 |
| 20260906020548 | 61 | 0 | 3.0 | 4.0 | 0.00 | 0.00 | 0.00 | 74 | 1017.4 |
| 20260906020048 | 60 | 6 | 3.0 | 4.0 | 0.00 | 0.00 | 0.00 | 74 | 1017.6 |
| 20260906015542 | 61 | 332 | 3.0 | 3.0 | 0.00 | 0.00 | 0.00 | 73 | 1017.7 |
| 20260906015042 | 61 | 351 | 1.0 | 2.0 | 0.00 | 0.00 | 0.00 | 72 | 1017.5 |
| 20260906014536 | 61 | 9 | 3.0 | 3.0 | 0.00 | 0.00 | 0.00 | 72 | 1017.6 |
| 20260906014032 | 61 | 103 | 1.0 | 3.0 | 0.00 | 0.00 | 0.00 | 72 | 1017.6 |
| 20260906013527 | 61 | 358 | 1.0 | 2.0 | 0.00 | 0.00 | 0.00 | 72 | 1017.6 |
| 20260906013023 | 62 | 34 | 2.0 | 2.0 | 0.00 | 0.00 | 0.00 | 71 | 1017.7 |
| 20260906012518 | 62 | 67 | 1.0 | 2.0 | 0.00 | 0.00 | 0.00 | 71 | 1017.6 |
| 20260906012017 | 62 | 21 | 3.0 | 3.0 | 0.00 | 0.00 | 0.00 | 72 | 1017.7 |
| 20260906011514 | 62 | 7 | 1.0 | 2.0 | 0.00 | 0.00 | 0.00 | 71 | 1017.7 |
| 20260906011013 | 63 | 122 | 2.0 | 2.0 | 0.00 | 0.00 | 0.00 | 71 | 1017.6 |
| 20260906010508 | 64 | 153 | 2.0 | 2.0 | 0.00 | 0.00 | 0.00 | 70 | 1017.5 |
| 20260906010005 | 64 | 135 | 2.0 | 3.0 | 0.00 | 0.00 | 0.00 | 69 | 1017.2 |
| 20260906005504 | 66 | 116 | 2.0 | 5.0 | 0.00 | 0.00 | 0.00 | 65 | 1017.3 |
| 20260906005003 | 68 | 165 | 1.0 | 2.0 | 0.00 | 0.00 | 0.00 | 60 | 1017.2 |
| 20260906004457 | 68 | 64 | 0.0 | 1.0 | 0.00 | 0.00 | 0.00 | 60 | 1017.3 |
| 20260906003952 | 66 | 358 | 1.0 | 3.0 | 0.00 | 0.00 | 0.00 | 64 | 1017.2 |
| 20260906003447 | 64 | 37 | 1.0 | 1.0 | 0.00 | 0.00 | 0.00 | 67 | 1017.1 |
| 20260906002943 | 63 | 37 | 0.0 | 1.0 | 0.00 | 0.00 | 0.00 | 68 | 1017.2 |
| 20260906002443 | 63 | 32 | 0.0 | 1.0 | 0.00 | 0.00 | 0.00 | 68 | 1017.2 |
| 20260906001937 | 64 | 129 | 0.0 | 1.0 | 0.00 | 0.00 | 0.00 | 67 | 1017.1 |
| 20260906001433 | 65 | 66 | 0.0 | 0.0 | 0.00 | 0.00 | 0.00 | 66 | 1017.2 |
| 20260906000928 | 66 | 41 | 1.0 | 2.0 | 0.00 | 0.00 | 0.00 | 64 | 1016.9 |
| 20260906000425 | 67 | 139 | 1.0 | 1.0 | 0.00 | 0.00 | 0.00 | 62 | 1017.2 |
| 20260905235918 | 68 | 322 | 2.0 | 3.0 | 0.00 | 0.00 | 0.00 | 59 | 1016.9 |
| 20260905235412 | 69 | 157 | 2.0 | 4.0 | 0.00 | 0.00 | 0.00 | 58 | 1017.0 |
| 20260905234908 | 68 | 183 | 1.0 | 4.0 | 0.00 | 0.00 | 0.00 | 60 | 1017.0 |
| 20260905234403 | 70 | 135 | 2.0 | 3.0 | 0.00 | 0.00 | 0.00 | 57 | 1017.0 |
| 20260905233858 | 69 | 143 | 2.0 | 2.0 | 0.00 | 0.00 | 0.00 | 58 | 1017.1 |
| 20260905233353 | 69 | 88 | 0.0 | 3.0 | 0.00 | 0.00 | 0.00 | 59 | 1017.1 |
| 20260905232852 | 69 | 138 | 0.0 | 3.0 | 0.00 | 0.00 | 0.00 | 59 | 1017.1 |
| 20260905232349 | 69 | 122 | 2.0 | 4.0 | 0.00 | 0.00 | 0.00 | 58 | 1017.1 |
| 20260905231844 | 70 | 178 | 0.0 | 2.0 | 0.00 | 0.00 | 0.00 | 58 | 1017.1 |
| 20260905231338 | 69 | 120 | 1.0 | 4.0 | 0.00 | 0.00 | 0.00 | 60 | 1016.9 |
| 20260905230830 | 69 | 118 | 2.0 | 4.0 | 0.00 | 0.00 | 0.00 | 60 | 1017.2 |
| 20260905230327 | 69 | 183 | 2.0 | 3.0 | 0.00 | 0.00 | 0.00 | 60 | 1017.1 |
| 20260905225827 | 69 | 111 | 2.0 | 5.0 | 0.00 | 0.00 | 0.00 | 62 | 1017.1 |
| 20260905225321 | 68 | 121 | 2.0 | 3.0 | 0.00 | 0.00 | 0.00 | 62 | 1017.0 |
| 20260905224816 | 68 | 141 | 2.0 | 5.0 | 0.00 | 0.00 | 0.00 | 62 | 1017.1 |
| 20260905224312 | 69 | 81 | 0.0 | 3.0 | 0.00 | 0.00 | 0.00 | 60 | 1017.1 |
| 20260905223807 | 69 | 138 | 2.0 | 2.0 | 0.00 | 0.00 | 0.00 | 62 | 1017.1 |
| 20260905223304 | 68 | 134 | 1.0 | 4.0 | 0.00 | 0.00 | 0.00 | 62 | 1017.3 |
| 20260905222759 | 70 | 128 | 4.0 | 7.0 | 0.00 | 0.00 | 0.00 | 59 | 1017.2 |
| 20260905222258 | 70 | 10 | 2.0 | 4.0 | 0.00 | 0.00 | 0.00 | 58 | 1017.0 |
| 20260905221754 | 70 | 94 | 0.0 | 3.0 | 0.00 | 0.00 | 0.00 | 58 | 1017.1 |
| 20260905221250 | 70 | 206 | 1.0 | 2.0 | 0.00 | 0.00 | 0.00 | 58 | 1017.2 |
| 20260905220746 | 71 | 126 | 3.0 | 3.0 | 0.00 | 0.00 | 0.00 | 57 | 1017.1 |
| 20260905220242 | 70 | 88 | 0.0 | 4.0 | 0.00 | 0.00 | 0.00 | 58 | 1017.1 |
| 20260905215741 | 70 | 174 | 2.0 | 5.0 | 0.00 | 0.00 | 0.00 | 58 | 1017.3 |
| 20260905215238 | 70 | 138 | 3.0 | 5.0 | 0.00 | 0.00 | 0.00 | 59 | 1017.2 |
| 20260905214733 | 70 | 99 | 2.0 | 4.0 | 0.00 | 0.00 | 0.00 | 60 | 1017.2 |
| 20260905214229 | 71 | 221 | 1.0 | 2.0 | 0.00 | 0.00 | 0.00 | 58 | 1017.3 |
| 20260905213724 | 70 | 114 | 2.0 | 4.0 | 0.00 | 0.00 | 0.00 | 59 | 1017.3 |
| 20260905213220 | 70 | 339 | 2.0 | 4.0 | 0.00 | 0.00 | 0.00 | 60 | 1017.5 |
| 20260905212714 | 70 | 17 | 3.0 | 3.0 | 0.00 | 0.00 | 0.00 | 58 | 1017.3 |
| 20260905212214 | 70 | 192 | 2.0 | 4.0 | 0.00 | 0.00 | 0.00 | 59 | 1017.5 |
| 20260905211708 | 70 | 142 | 0.0 | 4.0 | 0.00 | 0.00 | 0.00 | 58 | 1017.4 |
| 20260905211204 | 69 | 65 | 1.0 | 4.0 | 0.00 | 0.00 | 0.00 | 60 | 1017.5 |
| 20260905210700 | 70 | 111 | 3.0 | 3.0 | 0.00 | 0.00 | 0.00 | 59 | 1017.5 |
| 20260905210200 | 70 | 96 | 2.0 | 4.0 | 0.00 | 0.00 | 0.00 | 58 | 1017.4 |
| 20260905205659 | 69 | 122 | 1.0 | 6.0 | 0.00 | 0.00 | 0.00 | 60 | 1017.5 |
| 20260905205158 | 70 | 126 | 0.0 | 3.0 | 0.00 | 0.00 | 0.00 | 58 | 1017.6 |
| 20260905204653 | 70 | 290 | 2.0 | 3.0 | 0.00 | 0.00 | 0.00 | 58 | 1017.4 |
| 20260905204148 | 70 | 24 | 2.0 | 5.0 | 0.00 | 0.00 | 0.00 | 61 | 1017.6 |
| 20260905203643 | 69 | 122 | 2.0 | 5.0 | 0.00 | 0.00 | 0.00 | 61 | 1017.7 |
| 20260905203138 | 70 | 137 | 2.0 | 5.0 | 0.00 | 0.00 | 0.00 | 60 | 1017.5 |
| 20260905202634 | 70 | 184 | 4.0 | 5.0 | 0.00 | 0.00 | 0.00 | 59 | 1017.7 |
| 20260905202129 | 70 | 179 | 2.0 | 3.0 | 0.00 | 0.00 | 0.00 | 59 | 1017.7 |
| 20260905201624 | 70 | 227 | 1.0 | 3.0 | 0.00 | 0.00 | 0.00 | 60 | 1017.5 |
| 20260905201124 | 70 | 152 | 2.0 | 4.0 | 0.00 | 0.00 | 0.00 | 58 | 1017.4 |
| 20260905200620 | 70 | 142 | 0.0 | 3.0 | 0.00 | 0.00 | 0.00 | 61 | 1017.4 |
| 20260905200114 | 69 | 278 | 0.0 | 2.0 | 0.00 | 0.00 | 0.00 | 59 | 1017.6 |
| 20260905195613 | 70 | 180 | 4.0 | 4.0 | 0.00 | 0.00 | 0.00 | 60 | 1017.6 |
| 20260905195108 | 68 | 105 | 0.0 | 2.0 | 0.00 | 0.00 | 0.00 | 61 | 1017.7 |
| 20260905194608 | 68 | 12 | 2.0 | 2.0 | 0.00 | 0.00 | 0.00 | 61 | 1017.5 |
| 20260905194108 | 68 | 78 | 1.0 | 2.0 | 0.00 | 0.00 | 0.00 | 63 | 1017.5 |
| 20260905193602 | 68 | 337 | 4.0 | 5.0 | 0.00 | 0.00 | 0.00 | 59 | 1017.6 |
| 20260905193057 | 69 | 34 | 2.0 | 3.0 | 0.00 | 0.00 | 0.00 | 60 | 1017.7 |
| 20260905192553 | 69 | 58 | 0.0 | 4.0 | 0.00 | 0.00 | 0.00 | 63 | 1017.7 |
| 20260905192049 | 68 | 152 | 2.0 | 5.0 | 0.00 | 0.00 | 0.00 | 64 | 1017.6 |
| 20260905191548 | 67 | 136 | 2.0 | 5.0 | 0.00 | 0.00 | 0.00 | 65 | 1017.6 |
| 20260905191047 | 67 | 112 | 4.0 | 4.0 | 0.00 | 0.00 | 0.00 | 65 | 1017.8 |
| 20260905190545 | 66 | 166 | 3.0 | 6.0 | 0.00 | 0.00 | 0.00 | 67 | 1017.7 |
| 20260905190039 | 65 | 192 | 3.0 | 5.0 | 0.00 | 0.00 | 0.00 | 69 | 1017.9 |
| 20260905185538 | 64 | 138 | 2.0 | 4.0 | 0.00 | 0.00 | 0.00 | 69 | 1017.9 |
| 20260905185032 | 65 | 213 | 0.0 | 4.0 | 0.00 | 0.00 | 0.00 | 69 | 1018.0 |
| 20260905184527 | 67 | 165 | 3.0 | 4.0 | 0.00 | 0.00 | 0.00 | 65 | 1018.0 |
| 20260905184026 | 67 | 138 | 2.0 | 4.0 | 0.00 | 0.00 | 0.00 | 65 | 1018.0 |
| 20260905183525 | 66 | 310 | 0.0 | 3.0 | 0.00 | 0.00 | 0.00 | 68 | 1018.0 |
| 20260905183021 | 66 | 187 | 4.0 | 6.0 | 0.00 | 0.00 | 0.00 | 67 | 1018.0 |
| 20260905182515 | 65 | 169 | 2.0 | 6.0 | 0.00 | 0.00 | 0.00 | 70 | 1018.1 |
| 20260905182009 | 66 | 137 | 3.0 | 5.0 | 0.00 | 0.00 | 0.00 | 68 | 1018.0 |
| 20260905181504 | 66 | 126 | 4.0 | 6.0 | 0.00 | 0.00 | 0.00 | 68 | 1018.0 |
| 20260905181003 | 66 | 99 | 3.0 | 3.0 | 0.00 | 0.00 | 0.00 | 68 | 1018.1 |
| 20260905180458 | 66 | 208 | 2.0 | 4.0 | 0.00 | 0.00 | 0.00 | 70 | 1018.0 |
| 20260905175954 | 65 | 94 | 2.0 | 7.0 | 0.00 | 0.00 | 0.00 | 70 | 1018.4 |
| 20260905175453 | 64 | 89 | 0.0 | 2.0 | 0.00 | 0.00 | 0.00 | 70 | 1018.2 |
| 20260905174949 | 64 | 120 | 3.0 | 4.0 | 0.00 | 0.00 | 0.00 | 71 | 1018.2 |
| 20260905174443 | 64 | 145 | 2.0 | 3.0 | 0.00 | 0.00 | 0.00 | 72 | 1018.1 |
| 20260905173939 | 64 | 117 | 3.0 | 3.0 | 0.00 | 0.00 | 0.00 | 73 | 1018.1 |
| 20260905173436 | 63 | 131 | 2.0 | 4.0 | 0.00 | 0.00 | 0.00 | 72 | 1018.0 |
| 20260905172931 | 63 | 149 | 4.0 | 5.0 | 0.00 | 0.00 | 0.00 | 72 | 1017.9 |
| 20260905172429 | 64 | 166 | 5.0 | 5.0 | 0.00 | 0.00 | 0.00 | 71 | 1018.0 |
| 20260905171925 | 66 | 173 | 2.0 | 3.0 | 0.00 | 0.00 | 0.00 | 69 | 1017.9 |
| 20260905171421 | 64 | 151 | 2.0 | 3.0 | 0.00 | 0.00 | 0.00 | 70 | 1018.1 |
| 20260905170917 | 63 | 162 | 2.0 | 4.0 | 0.00 | 0.00 | 0.00 | 72 | 1018.1 |
| 20260905170413 | 63 | 120 | 4.0 | 5.0 | 0.00 | 0.00 | 0.00 | 74 | 1018.0 |
| 20260905165912 | 62 | 107 | 2.0 | 5.0 | 0.00 | 0.00 | 0.00 | 74 | 1017.9 |
| 20260905165408 | 63 | 170 | 3.0 | 4.0 | 0.00 | 0.00 | 0.00 | 73 | 1018.0 |
| 20260905164902 | 63 | 120 | 2.0 | 2.0 | 0.00 | 0.00 | 0.00 | 72 | 1017.8 |
| 20260905164357 | 61 | 89 | 1.0 | 2.0 | 0.00 | 0.00 | 0.00 | 76 | 1017.8 |
| 20260905163852 | 60 | 86 | 1.0 | 3.0 | 0.00 | 0.00 | 0.00 | 79 | 1017.7 |
| 20260905163349 | 59 | 118 | 2.0 | 3.0 | 0.00 | 0.00 | 0.00 | 81 | 1017.7 |
| 20260905162844 | 57 | 79 | 0.0 | 2.0 | 0.00 | 0.00 | 0.00 | 83 | 1017.6 |
| 20260905162338 | 57 | 105 | 1.0 | 2.0 | 0.00 | 0.00 | 0.00 | 85 | 1017.5 |
| 20260905161833 | 56 | 98 | 2.0 | 2.0 | 0.00 | 0.00 | 0.00 | 84 | 1017.6 |
| 20260905161332 | 56 | 113 | 2.0 | 2.0 | 0.00 | 0.00 | 0.00 | 83 | 1017.5 |
| 20260905160831 | 56 | 125 | 2.0 | 2.0 | 0.00 | 0.00 | 0.00 | 86 | 1017.6 |
| 20260905160325 | 56 | 60 | 1.0 | 2.0 | 0.00 | 0.00 | 0.00 | 86 | 1017.8 |
| 20260905155820 | 56 | 35 | 2.0 | 3.0 | 0.00 | 0.00 | 0.00 | 86 | 1017.7 |
| 20260905155319 | 56 | 40 | 2.0 | 3.0 | 0.00 | 0.00 | 0.00 | 86 | 1017.8 |
| 20260905154819 | 56 | 339 | 2.0 | 4.0 | 0.00 | 0.00 | 0.00 | 85 | 1017.8 |
| 20260905154315 | 56 | 35 | 2.0 | 3.0 | 0.00 | 0.00 | 0.00 | 84 | 1017.7 |
| 20260905153810 | 56 | 44 | 2.0 | 3.0 | 0.00 | 0.00 | 0.00 | 83 | 1017.8 |
| 20260905153307 | 56 | 18 | 2.0 | 4.0 | 0.00 | 0.00 | 0.00 | 83 | 1017.8 |
| 20260905152805 | 56 | 30 | 2.0 | 3.0 | 0.00 | 0.00 | 0.00 | 83 | 1017.7 |
| 20260905152306 | 55 | 16 | 4.0 | 4.0 | 0.00 | 0.00 | 0.00 | 83 | 1017.9 |
| 20260905151800 | 54 | 32 | 2.0 | 3.0 | 0.00 | 0.00 | 0.00 | 84 | 1017.8 |
| 20260905151256 | 54 | 56 | 2.0 | 3.0 | 0.00 | 0.00 | 0.00 | 85 | 1017.7 |
| 20260905150756 | 53 | 70 | 2.0 | 3.0 | 0.00 | 0.00 | 0.00 | 87 | 1017.5 |
| 20260905150255 | 53 | 37 | 0.0 | 2.0 | 0.00 | 0.00 | 0.00 | 87 | 1017.8 |
| 20260905145753 | 53 | 25 | 1.0 | 2.0 | 0.00 | 0.00 | 0.00 | 88 | 1017.9 |
| 20260905145248 | 53 | 60 | 1.0 | 2.0 | 0.00 | 0.00 | 0.00 | 87 | 1017.7 |
| 20260905144746 | 53 | 56 | 1.0 | 2.0 | 0.00 | 0.00 | 0.00 | 85 | 1017.6 |
| 20260905144242 | 53 | 107 | 1.0 | 3.0 | 0.00 | 0.00 | 0.00 | 85 | 1017.5 |
| 20260905143736 | 53 | 113 | 3.0 | 5.0 | 0.00 | 0.00 | 0.00 | 82 | 1017.5 |
| 20260905143235 | 53 | 92 | 2.0 | 4.0 | 0.00 | 0.00 | 0.00 | 82 | 1017.4 |
| 20260905142733 | 53 | 124 | 1.0 | 4.0 | 0.00 | 0.00 | 0.00 | 83 | 1017.4 |
| 20260905142228 | 53 | 111 | 2.0 | 4.0 | 0.00 | 0.00 | 0.00 | 85 | 1017.3 |
| 20260905141723 | 54 | 107 | 1.0 | 4.0 | 0.00 | 0.00 | 0.00 | 85 | 1017.3 |
| 20260905141219 | 55 | 88 | 1.0 | 2.0 | 0.00 | 0.00 | 0.00 | 84 | 1017.2 |
| 20260905140715 | 54 | 29 | 1.0 | 2.0 | 0.00 | 0.00 | 0.00 | 84 | 1017.1 |
| 20260905140209 | 54 | 129 | 0.0 | 1.0 | 0.00 | 0.00 | 0.00 | 85 | 1017.2 |
| 20260905135704 | 54 | 62 | 0.0 | 1.0 | 0.00 | 0.00 | 0.00 | 84 | 1017.2 |
| 20260905135200 | 54 | 148 | 0.0 | 3.0 | 0.00 | 0.00 | 0.00 | 83 | 1017.3 |
| 20260905134659 | 54 | 112 | 1.0 | 2.0 | 0.00 | 0.00 | 0.00 | 84 | 1017.4 |
| 20260905134158 | 54 | 120 | 2.0 | 4.0 | 0.00 | 0.00 | 0.00 | 84 | 1017.2 |
| 20260905133653 | 54 | 141 | 4.0 | 4.0 | 0.00 | 0.00 | 0.00 | 85 | 1017.2 |